WA2GUG Weather Reports


time (UTC)temp
F
wind
direction
speed
knots
gust
knots
rain 1hr
in
rain 24hr
in
rain mn
in
humidity
%
barometer
mb
20210927071623 47 52 0.0 0.0 0.00 0.00 0.00 99 1011.0
20210927071123 47 348 0.0 0.0 0.00 0.00 0.00 99 1011.0
20210927065623 46 33 0.0 0.9 0.00 0.00 0.00 99
20210927063624 46 20 0.0 0.0 0.00 0.00 0.00 99 1011.0
20210927062623 47 90 0.0 0.0 0.00 0.00 0.00 99 1011.0
20210927055624 48 337 0.0 0.9 0.00 0.00 0.00 99 1011.0
20210927054623 48 45 0.0 0.9 0.00 0.00 0.00 99 1011.0
20210927054123 48 84 0.0 0.0 0.00 0.00 0.00 99 1000.0
20210927053624 48 22 0.0 0.0 0.00 0.00 0.00 99 1012.0
20210927052623 48 95 0.0 0.0 0.00 0.00 0.00 99 1011.0
20210927050623 49 225 0.0 0.0 0.00 0.00 0.00 99 1011.0
20210927045623 49 45 0.0 0.0 0.00 0.00 0.00 99 1011.0
20210927044123 49 48 0.0 0.0 0.00 0.00 0.00 99
20210927043624 50 56 0.0 0.0 0.00 0.00 0.00 99 1011.0
20210927043123 50 61 0.0 0.0 0.00 0.00 0.00 99 1011.0
20210927040624 51 67 0.0 86.0 0.00 0.00 0.00 99 1011.0
20210927034123 53 273 0.0 0.0 0.00 0.00 0.00 99
20210927032623 53 270 0.0 0.0 0.00 0.00 0.00 99 1011.0
20210927031623 53 243 0.0 0.0 0.00 0.00 0.00 99
20210927031123 53 234 0.0 0.0 0.00 0.00 0.00 99 1011.0
20210927030124 53 41 0.0 0.0 0.00 0.00 0.00 99 1011.0
20210927025624 53 206 0.0 0.0 0.00 0.00 0.00 99 1011.0
20210927024623 52 341 0.0 0.0 0.00 0.00 0.00 99 1011.0
20210927024123 52 78 0.0 0.0 0.00 0.00 0.00 99 3379.0
20210927022625 52 90 0.0 0.0 0.00 0.00 0.00 92 1011.0
20210927021623 51 33 0.0 0.0 0.00 0.00 0.00 90 1011.0
20210927020123 51 331 0.0 0.0 0.00 0.00 0.00 99 1011.0
20210927015623 51 315 0.0 0.0 0.00 0.00 0.00 99
20210927014622 51 90 0.0 0.9 0.00 0.00 0.00 99 1011.0
20210927014123 51 45 0.0 0.9 0.00 0.00 0.00 99 1011.0
20210927012623 51 120 0.0 0.0 0.00 0.00 0.00 99 1011.0
20210927011622 52 112 0.0 0.0 0.00 0.00 0.00 99 1011.0
20210927011123 52 52 0.0 0.0 0.00 0.00 0.00 99 1011.0
20210927005623 52 82 0.0 0.0 0.00 0.00 0.00 99 1011.0
20210927004125 53 212 0.0 0.0 0.00 0.00 0.00 99 1011.0
20210927003124 53 64 0.0 0.0 0.00 0.00 0.00 99
20210927002624 53 123 0.0 0.0 0.00 0.00 0.00 99 1011.0
20210926235123 55 279 0.0 1.7 0.00 0.00 0.00 99 1010.0
20210926234623 55 40 0.9 1.7 0.00 0.00 0.00 99 1010.0
20210926234126 55 45 0.9 1.7 0.00 0.00 0.00 99 1010.0
20210926233623 55 90 0.0 1.7 0.00 0.00 0.00 99 1010.0
20210926232623 55 37 0.0 0.9 0.00 0.00 0.00 99 1010.0
20210926232124 55 270 0.0 0.9 0.00 0.00 0.00 99 1010.0
20210926231622 56 112 0.0 0.9 0.00 0.00 0.00 99 1010.0
20210926221124 70 175 0.0 0.9 0.00 0.00 0.00 87 1010.0
20210926215122 83 270 0.0 0.9 0.00 0.00 0.00 74
20210926211125 83 247 1.7 5.2 0.00 0.00 0.00 52 1010.0
20210926205623 84 225 1.7 5.2 0.00 0.00 0.00 63 5687.0
20210926203625 86 326 1.7 4.3 0.00 0.00 0.00 78 1009.0
20210926202122 89 261 1.7 3.5 0.00 0.00 0.00 64 1009.0
20210926201624 88 101 1.7 6.1 0.00 0.00 0.00 86
20210926201123 86 0 2.6 6.1 0.00 0.00 0.00 69 1033.0
20210926185623 85 324 1.7 7.0 0.00 0.00 0.00 60 1009.0
20210926184122 84 127 0.9 5.2 0.00 0.00 0.00 77 1009.0
20210926182623 89 337 1.7 2.6 0.00 0.00 0.00 72 1009.0
20210926171122 82 202 2.6 5.2 0.00 0.00 0.00 61 1010.0
20210926164622 82 202 1.7 3.5 0.00 0.00 0.00 68 970.0
20210926164122 82 230 1.7 5.2 0.00 0.00 0.00 82 1010.0
20210926163124 83 52 2.6 5.2 0.00 0.00 0.00 70 1224.0
20210926162622 82 345 1.7 4.3 0.00 0.00 0.00 71 1010.0
20210926154122 70 135 1.7 5.2 0.00 0.00 0.00 74 1010.0
20210926144122 74 219 2.6 5.2 0.00 0.00 0.00 77 1010.0
20210926143623 76 236 1.7 4.3 0.00 0.00 0.00 70
20210926132622 71 282 1.7 6.1 0.00 0.00 0.00 88 1010.0
20210926132122 70 33 1.7 6.1 0.00 0.00 0.00 79 1010.0
20210926131121 70 120 1.7 4.3 0.00 0.00 0.00 90 1010.0
20210926125622 64 0 1.7 3.5 0.00 0.00 0.00 99 1010.0
20210926125122 62 277 0.9 3.5 0.00 0.00 0.00 99 1010.0
20210926124621 62 337 0.9 3.5 0.00 0.00 0.00 99 1010.0
20210926124122 62 73 1.7 2.6 0.00 0.00 0.00 99 1010.0
20210926121621 57 78 0.9 2.6 0.00 0.00 0.00 99 1010.0
20210926120622 56 18 0.9 1.7 0.00 0.00 0.00 99 1010.0
20210926120122 55 90 0.0 0.9 0.00 0.00 0.00 99 969.0
20210926114622 55 112 0.0 1.7 0.00 0.00 0.00 99
20210926111623 55 75 0.9 2.6 0.00 0.00 0.00 99
20210926111122 55 11 0.0 1.7 0.00 0.00 0.00 99 1010.0
20210926110621 55 45 0.9 1.7 0.00 0.00 0.00 99 2184.0
20210926105122 55 292 0.0 1.7 0.00 0.00 0.00 99 1010.0
20210926104621 55 45 0.9 1.7 0.00 0.00 0.00 99 1010.0
20210926104122 55 95 0.9 1.7 0.00 0.00 0.00 99 1010.0
20210926102621 55 67 0.0 0.9 0.00 0.00 0.00 99 1010.0
20210926101621 55 9 0.0 2.6 0.00 0.00 0.00 99
20210926101121 55 27 0.0 1.7 0.00 0.00 0.00 99 1010.0
20210926095623 56 22 0.0 5.2 0.00 0.00 0.00 99 2165.0
20210926093622 56 76 0.0 1.7 0.00 0.00 0.00 99 1010.0
20210926092622 56 195 0.9 3.5 0.00 0.00 0.00 99 1010.0
20210926085621 57 7 1.7 4.3 0.00 0.00 0.00 99
20210926085122 58 225 1.7 4.3 0.00 0.00 0.00 99 1010.0
20210926084122 58 54 0.9 2.6 0.00 0.00 0.00 99 1010.0
20210926083122 58 180 0.9 2.6 0.00 0.00 0.00 99 1010.0
20210926082622 58 52 0.9 2.6 0.00 0.00 0.00 99 1010.0
20210926082123 58 5 0.9 2.6 0.00 0.00 0.00 99 1010.0
20210926081122 58 61 0.9 4.3 0.00 0.00 0.00 99 1009.0
20210926075621 57 22 0.9 2.6 0.00 0.00 0.00 99 1009.0
20210926075126 57 90 0.9 2.6 0.00 0.00 0.00 99
20210926074122 57 45 0.0 2.6 0.00 0.00 0.00 99 980.0
20210926072621 57 0 0.0 0.9 0.00 0.00 0.00 99
20210926072121 57 318 0.0 0.9 0.00 0.00 0.00 99